CAPE
366 744 469 427 597 422 470 703 711 966 682 262 832 945 1103 707 865 1159 1119 1029 822 618 888 921 970 1099 889 825 697 967 741 721 435 312 466 862 965 609 884 464 13 0 0
372 358 334 237 703 350 507 707 611 937 895 912 1010 1067 981 1150 1160 1052 812 682 937 1146 1076 953 852 939 1103 834 776 749 731 588 408 284 4 68 568 1246 821 668 158 0 0
445 606 463 499 525 446 381 639 738 568 680 898 999 946 927 881 1094 1003 841 864 645 797 1178 891 914 1130 891 738 395 613 525 556 286 111 136 391 435 303 243 280 26 0 0
667 827 622 670 542 727 797 711 501 1150 1025 1170 1236 1159 1004 1205 1328 984 785 987 628 666 723 1094 879 637 779 688 520 445 416 397 279 341 274 162 208 316 303 219 63 0 0
611 758 743 649 837 585 876 879 761 868 765 634 808 1012 963 1070 1023 735 731 960 982 798 795 725 703 470 540 392 256 360 559 315 168 29 36 15 143 79 111 174 25 151 17
721 789 821 744 688 774 647 850 818 872 980 1025 1008 986 939 988 348 201 230 848 789 499 284 284 299 340 209 223 275 182 127 110 75 89 149 109 85 71 61 131 111 39 86
1043 888 941 831 729 746 749 687 606 652 808 1008 970 918 850 216 46 84 79 125 439 550 515 611 786 713 296 157 140 185 0 61 57 48 66 69 81 2 7 115 70 49 60
1080 1032 1029 1022 744 801 895 935 927 1103 994 843 768 769 299 0 0 0 0 0 6 293 341 237 241 23 0 0 38 144 179 51 11 0 0 0 0 0 0 0 8 93 4
788 1144 1033 1167 907 775 431 620 807 906 757 487 299 165 24 0 0 0 0 18 126 13 0 0 0 0 0 0 0 0 38 0 0 0 0 0 0 0 0 0 0 1 50
839 819 845 884 771 793 759 801 500 317 85 1 0 1 2 0 0 0 0 7 35 0 0 0 0 0 0 0 0 0 0 0 0 0 0 0 0 0 0 0 0 0 0
89 506 496 491 498 321 299 326 85 28 4 0 1 1 0 0 0 0 0 0 1 0 0 0 0 0 0 0 0 0 0 0 0 0 0 0 0 0 0 0 0 0 0
43 73 178 135 102 33 15 6 0 0 0 0 0 1 3 1 0 0 0 0 0 0 0 0 0 0 0 0 0 0 0 0 0 0 0 0 0 0 0 0 0 0 0
1 29 61 0 0 0 0 0 0 0 1 2 1 0 2 2 0 0 0 0 0 0 0 0 0 0 0 0 0 0 0 0 0 0 0 0 0 0 0 0 0 0 0
42 64 54 6 2 1 0 1 0 0 0 0 0 0 0 0 0 0 0 0 0 0 0 0 0 0 0 0 0 0 0 0 0 0 0 0 0 0 0 0 0 0 0
1 1 0 0 0 0 0 0 0 0 0 0 0 0 0 0 0 0 0 0 0 0 0 0 0 0 0 0 0 0 0 0 0 0 0 0 0 0 0 0 0 0 0
2 1 0 0 0 0 0 0 0 0 0 0 0 0 0 0 0 0 0 0 0 0 0 0 0 0 0 0 0 0 0 0 0 0 0 0 0 0 0 0 0 0 0
4 3 0 0 0 0 0 0 0 0 0 0 0 0 0 0 0 0 0 0 0 0 0 0 0 0 0 0 0 0 0 0 0 0 0 0 0 0 0 0 0 0 0
1 9 5 0 0 0 0 0 0 0 0 0 0 0 0 0 0 0 0 0 0 0 0 0 0 0 0 0 0 0 0 0 0 0 0 0 0 0 0 0 0 0 0
0 0 1 0 0 0 0 0 0 0 0 0 0 0 0 0 0 0 0 0 0 0 0 0 0 0 0 0 0 0 0 0 0 0 0 0 0 0 0 0 0 0 0
0 0 0 0 0 0 0 0 0 0 0 0 0 0 0 0 0 0 0 0 0 0 0 0 0 0 0 0 0 0 0 0 0 0 0 0 0 0 0 0 0 0 0
0 0 0 0 0 0 0 0 0 0 0 0 0 0 0 0 0 0 0 0 0 0 0 0 0 0 0 0 0 0 0 0 0 0 0 0 0 0 0 0 0 0 0
0 0 0 0 0 0 0 0 0 0 0 0 0 0 0 0 0 0 0 0 0 0 0 0 0 0 0 0 0 0 0 0 0 0 0 0 0 0 0 0 0 0 0
0 0 0 0 0 0 0 0 0 0 0 0 0 0 0 0 0 0 0 0 0 0 0 0 0 0 0 0 0 0 0 0 0 0 0 0 0 0 0 0 0 0 0
0 0 0 0 0 0 0 2 2 0 0 0 1 0 0 0 0 0 0 0 6 4 4 10 4 0 0 0 0 0 0 0 0 0 0 0 0 0 0 0 0 0 0
0 0 0 3 0 0 0 0 0 0 0 0 0 0 0 0 0 1 0 2 15 13 5 3 2 0 0 0 0 0 0 0 0 0 0 0 0 0 0 0 0 0 0
0 0 0 0 0 0 0 0 0 0 0 0 0 0 0 0 0 0 1 1 0 1 5 22 3 0 0 0 0 0 0 0 0 0 0 0 0 0 0 0 0 0 0
CIN
-84 -42 -54 -56 -41 -48 -45 -35 -35 -26 -37 -77 -20 -16 -8 -14 -10 -5 -11 -15 -15 -17 -12 -19 -14 -14 -16 -22 -28 -30 -34 -38 -26 -45 -41 -35 -13 -24 -47 -111 -55 0 0
-86 -78 -68 -85 -32 -59 -52 -38 -39 -22 -19 -19 -22 -22 -18 -17 -12 -11 -16 -17 -14 -8 -14 -14 -12 -14 -13 -11 -18 -21 -29 -42 -42 -49 -4 -20 -30 -18 -26 -35 -117 0 0
-63 -51 -48 -50 -47 -59 -54 -30 -27 -28 -31 -17 -14 -16 -25 -24 -16 -16 -20 -23 -23 -18 -6 -10 -9 -8 -12 -14 -18 -18 -30 -31 -57 -75 -60 -49 -39 -46 -41 -77 -136 0 0
-50 -37 -28 -23 -37 -30 -23 -17 -24 -9 -10 -9 -10 -18 -18 -20 -18 -17 -21 -12 -17 -16 -17 -11 -17 -23 -25 -28 -24 -18 -25 -28 -37 -53 -60 -57 -45 -43 -61 -61 -42 0 0
-47 -39 -28 -19 -15 -24 -8 -9 -15 -9 -17 -22 -18 -16 -21 -18 -13 -42 -30 -10 -7 -19 -26 -20 -25 -31 -40 -54 -47 -34 -28 -34 -32 -61 -87 -106 -53 -59 -57 -62 -81 -31 -62
-37 -39 -36 -19 -12 -11 -11 -6 -13 -12 -9 -7 -12 -14 -14 -14 -94 -115 -81 -26 -18 -34 -46 -45 -46 -46 -68 -76 -69 -72 -77 -72 -64 -57 -44 -63 -65 -41 -45 -30 -35 -22 -15
-19 -23 -28 -27 -17 -19 -17 -19 -26 -31 -24 -19 -19 -23 -16 -120 -210 -155 -132 -72 -31 -25 -28 -34 -25 -30 -89 -105 -93 -61 0 -117 -98 -95 -53 -83 -90 -128 -138 -38 -36 -28 -14
-10 -16 -14 -14 -22 -30 -29 -32 -21 -13 -20 -19 -18 -16 -67 0 0 0 0 0 -10 -26 -42 -49 -49 -52 0 0 -72 -56 -41 -101 -78 0 0 0 0 0 0 0 -120 -58 -82
-19 -17 -25 -23 -21 -25 -22 -22 -17 -17 -23 -69 -109 -127 -200 0 0 0 0 -96 -39 -120 0 0 0 0 0 0 0 0 -71 0 0 0 0 0 0 0 0 0 0 -21 -44
-23 -21 -33 -32 -29 -23 -40 -44 -89 -111 -158 0 0 0 0 0 0 0 0 -68 -54 0 0 0 0 0 0 0 0 0 0 -5 0 0 0 0 0 0 0 0 0 0 0
-56 -37 -42 -45 -39 -80 -96 -93 -155 -195 -162 0 0 0 0 0 0 0 0 0 -39 0 0 0 0 0 0 0 0 0 0 0 0 0 0 0 0 0 0 0 0 0 0
-37 -91 -25 -71 -93 -162 -197 -74 0 0 0 0 0 0 0 0 0 0 0 0 0 0 0 0 0 0 0 0 0 0 0 0 0 0 0 0 0 0 0 0 0 0 0
-11 -39 -17 -22 0 0 0 0 0 0 0 0 0 0 0 0 0 0 0 0 0 0 0 0 0 0 0 0 0 0 0 0 0 0 0 0 0 0 0 0 0 0 0
-148 -135 -90 -73 -19 0 0 0 0 0 0 0 0 0 0 0 0 0 0 0 0 0 0 0 0 0 0 0 0 0 0 0 0 0 0 0 0 0 0 0 0 0 0
0 0 0 0 0 0 0 0 0 0 0 0 0 0 0 0 0 0 0 0 0 0 0 0 0 0 0 0 0 0 0 0 0 0 0 0 0 0 0 0 0 0 0
-179 -43 0 0 0 0 0 0 0 0 0 0 0 0 0 0 0 0 0 0 0 0 0 0 0 0 0 0 0 0 0 0 0 0 0 0 0 0 0 0 0 0 0
-241 -281 0 0 0 0 0 0 0 0 0 0 0 0 0 0 0 0 0 0 0 0 0 0 0 0 0 0 0 0 0 0 0 0 0 0 0 0 0 0 0 0 0
-57 -254 -255 0 0 0 0 0 0 0 0 0 0 0 0 0 0 0 0 0 0 0 0 0 0 0 0 0 0 0 0 0 0 0 0 0 0 0 0 0 0 0 0
0 -90 -97 0 0 0 0 0 0 0 0 0 0 0 0 0 0 0 0 0 0 0 0 0 0 0 0 0 0 0 0 0 0 0 0 0 0 0 0 0 0 0 0
0 0 0 0 0 0 0 0 0 0 0 0 0 0 0 0 0 0 0 0 0 0 0 0 0 0 0 0 0 0 0 0 0 0 0 0 0 0 0 0 0 0 0
0 0 0 0 0 0 0 0 0 0 0 0 0 0 0 0 0 0 0 0 0 0 0 0 0 0 0 0 0 0 0 0 0 0 0 0 0 0 0 0 0 0 0
0 0 0 0 0 0 0 0 0 0 0 0 0 0 0 0 0 0 0 0 0 0 0 0 0 0 0 0 0 0 0 0 0 0 0 0 0 0 0 0 0 0 0
0 0 0 0 0 0 0 0 0 0 0 0 0 0 0 0 0 0 0 0 0 0 0 0 0 0 0 0 0 0 0 0 0 0 0 0 0 0 0 0 0 0 0
-2 0 0 0 0 0 0 -20 -24 -2 0 0 -15 0 0 0 0 0 0 0 -54 -57 -60 -54 -53 0 0 0 0 0 0 0 0 0 0 0 0 0 0 0 0 0 0
0 0 -24 -20 0 0 0 0 0 0 0 0 0 0 0 0 0 -42 0 -52 -36 -41 -40 -42 -46 0 0 0 0 0 0 0 0 0 0 0 0 0 0 0 0 0 0
0 0 0 0 0 0 0 0 0 0 0 0 0 0 0 0 0 0 -25 -34 0 -15 -28 -37 -44 0 0 0 0 0 0 0 0 0 0 0 0 0 0 0 0 0 0
Wind_Speed
9 6 6 5 7 6 12 18 6 3 5 8 7 6 6 14 12 7 7 11 12 3 7 22 22 17 16 17 20 20 19 19 19 18 17 19 16 11 17 18 16 17 18
7 8 9 9 6 5 6 4 6 2 3 5 4 4 6 5 5 5 5 10 6 15 11 3 24 7 9 13 20 21 21 19 21 24 22 23 25 16 17 15 15 16 16
8 9 7 9 6 4 5 5 3 1 2 2 3 3 4 9 3 8 7 5 11 19 22 22 24 23 20 16 19 20 21 22 21 21 23 22 23 23 22 18 14 16 15
10 8 9 8 7 5 5 3 1 1 0 4 7 7 9 11 13 13 15 8 12 18 20 21 21 22 22 21 20 20 21 21 22 20 22 25 23 21 18 17 16 18 13
9 10 9 9 7 7 4 4 6 11 10 10 9 9 8 8 15 15 17 14 12 16 18 20 20 20 21 21 22 23 22 23 24 25 25 25 24 25 24 18 17 11 8
11 9 8 8 8 6 7 10 10 9 9 9 6 5 7 11 12 14 17 16 14 17 20 20 20 20 20 22 21 20 20 22 24 25 24 24 24 24 22 19 16 16 17
25 14 9 8 7 6 6 9 11 10 10 8 8 9 11 13 15 17 17 17 17 19 20 21 21 21 22 22 21 20 20 21 21 23 23 23 23 24 24 22 18 18 17
26 14 13 10 8 8 8 8 10 10 11 15 16 17 13 16 17 18 18 17 17 18 17 19 19 20 23 23 23 22 20 19 21 22 21 21 22 22 23 22 22 23 18
24 16 15 13 11 10 12 13 14 15 16 18 19 17 16 18 19 18 17 18 18 15 17 19 19 21 22 22 22 23 22 21 20 19 17 21 22 24 24 22 24 23 20
33 17 14 15 14 11 10 11 12 14 14 16 17 17 17 18 19 19 18 18 17 16 18 19 21 22 23 24 24 24 24 22 19 18 19 21 23 23 23 22 22 21 19
25 22 12 10 10 9 9 10 11 13 14 15 16 18 18 19 19 18 19 18 18 17 19 22 23 24 23 24 22 23 23 21 18 16 16 17 20 21 21 22 22 21 20
21 17 9 9 9 8 9 10 12 13 15 15 15 18 18 18 17 17 17 17 16 16 17 18 19 19 20 21 20 20 20 18 16 15 15 17 20 21 22 22 22 21 21
13 8 12 9 11 9 10 11 11 12 12 13 14 15 16 15 15 16 15 15 15 15 14 14 16 18 19 19 19 19 19 17 16 17 18 18 18 18 19 21 20 21 21
7 6 8 7 9 9 9 9 8 9 10 11 12 13 13 13 14 14 15 15 16 16 16 16 17 17 17 18 19 20 19 19 18 18 17 17 18 20 22 21 21 20 20
6 5 6 6 5 4 6 7 7 9 10 11 11 12 12 13 15 15 15 16 16 16 16 18 19 19 19 20 20 20 20 20 19 18 18 19 19 20 21 20 21 22 22
6 6 6 9 6 15 8 7 9 11 12 12 12 12 14 13 13 15 15 15 16 15 16 16 18 19 19 19 19 19 19 19 20 19 20 20 22 21 22 21 20 22 20
11 11 11 10 13 14 11 8 10 11 13 14 14 13 13 13 14 15 16 16 16 16 18 17 17 18 19 19 19 18 19 20 20 20 21 21 21 22 22 22 22 22 21
10 11 10 11 11 10 10 9 10 10 11 12 13 13 13 13 14 15 16 17 16 16 17 18 18 18 19 19 19 19 19 20 21 22 22 22 23 23 22 21 21 21 21
11 10 10 10 9 9 8 9 10 10 11 12 12 12 12 14 15 16 17 17 18 19 19 17 17 17 18 18 18 20 21 22 22 24 23 24 24 23 23 22 22 22 23
9 9 11 11 11 11 11 8 10 10 11 11 11 11 12 14 16 18 17 17 17 20 22 17 16 18 17 17 20 21 22 23 23 23 24 24 24 24 23 23 23 23 23
8 10 11 10 12 14 14 11 10 10 11 10 9 8 9 14 17 19 18 14 15 17 19 17 17 18 18 19 21 22 23 23 21 23 23 23 23 23 22 22 22 21 21
9 9 11 10 12 14 14 15 16 17 18 17 12 10 9 15 18 21 20 15 10 14 16 16 17 18 19 19 19 20 22 25 21 20 21 22 21 22 21 21 21 21 20
12 9 10 10 11 13 14 15 14 15 16 17 14 13 13 16 19 18 18 17 12 10 11 12 15 19 19 18 18 20 23 25 22 18 20 21 20 21 20 20 20 20 18
17 12 6 7 9 12 14 14 18 19 19 20 19 17 17 19 20 19 22 25 14 11 13 15 16 19 16 18 20 20 19 18 17 18 21 22 21 19 21 20 18 15 16
15 16 15 11 13 16 16 17 19 20 21 22 22 24 25 26 28 24 22 21 19 15 14 14 14 17 15 17 18 19 17 17 18 18 19 18 18 18 19 18 16 15 16
16 13 14 13 15 16 17 19 20 22 23 25 26 26 27 27 28 28 26 23 20 18 16 15 14 12 12 14 16 16 16 16 17 18 17 17 17 17 18 15 17 17 18
Wind_Direction
158 180 172 203 172 255 272 269 299 11 12 104 93 30 11 156 148 32 16 346 322 59 92 298 306 342 353 339 328 343 354 3 357 360 10 6 20 56 28 33 45 37 35
181 172 172 167 177 211 260 273 292 307 10 100 22 14 110 77 69 51 83 162 47 337 171 35 290 214 30 9 340 338 342 348 348 336 347 336 330 13 7 25 27 22 28
180 176 185 167 173 194 178 171 280 296 323 124 115 109 113 160 79 351 8 94 351 315 303 308 300 317 334 347 348 344 343 343 340 341 340 345 341 341 343 1 5 4 7
167 184 183 182 182 180 171 190 230 274 342 328 323 333 332 329 327 326 324 358 343 325 314 316 322 323 327 332 338 344 343 345 342 344 336 329 339 346 351 357 351 345 6
179 177 190 191 188 177 250 263 287 293 299 307 314 322 332 342 321 323 317 327 336 331 325 318 324 328 333 333 330 330 335 335 330 325 325 327 329 328 328 345 339 359 6
206 193 190 187 185 225 262 279 287 294 302 312 324 336 334 325 329 327 323 322 326 322 319 320 323 327 331 330 334 337 339 336 332 326 325 323 327 329 334 337 345 343 340
245 246 227 206 200 224 248 273 282 290 301 313 318 319 319 318 316 316 317 321 324 322 323 324 322 328 327 328 330 333 335 337 337 332 328 327 326 327 328 330 341 339 341
250 237 244 242 236 249 259 269 282 291 296 300 304 306 313 312 314 314 315 316 320 324 332 330 331 331 330 328 326 330 332 336 336 334 334 336 336 333 331 327 328 327 337
243 227 236 241 243 253 267 275 280 286 295 303 306 310 310 311 313 315 320 321 322 332 332 331 332 329 332 331 327 324 325 333 336 340 346 342 336 333 334 331 327 327 325
251 227 230 248 258 263 273 286 296 303 308 313 319 323 321 316 315 314 316 318 322 326 328 331 327 328 331 327 327 321 321 324 326 328 328 334 335 343 346 342 337 335 334
287 237 231 249 259 272 285 300 310 315 320 325 326 323 325 325 322 322 322 323 319 320 322 319 322 324 329 330 334 325 324 327 327 331 336 338 341 345 349 346 347 346 336
292 308 270 262 271 286 296 306 311 317 316 327 330 325 325 329 337 338 335 331 331 331 328 331 337 341 341 343 345 349 352 353 346 341 339 335 336 336 340 344 346 346 339
351 271 286 292 284 295 300 306 312 319 331 334 341 343 346 338 343 0 357 359 356 23 26 18 5 356 350 359 358 357 358 5 4 351 342 342 340 345 345 344 346 344 342
355 349 355 351 285 288 302 308 327 325 340 351 356 359 359 346 353 357 357 354 6 16 15 12 5 6 1 0 358 358 357 355 353 353 351 351 346 343 341 342 343 344 343
315 335 332 357 349 346 341 324 328 327 348 352 357 8 4 357 354 354 350 350 359 6 7 357 347 345 347 345 346 349 351 352 351 352 349 347 346 344 343 344 343 341 333
31 13 29 49 21 76 33 328 335 345 350 357 3 6 355 4 8 357 359 6 6 7 359 0 354 352 347 349 349 351 354 355 354 353 349 346 340 339 339 344 345 340 342
75 72 66 57 70 74 54 9 22 348 343 352 4 8 9 14 15 13 8 3 2 1 356 355 354 353 351 350 350 352 347 347 347 346 344 343 340 338 338 338 339 340 340
56 65 57 64 58 42 22 16 18 13 5 357 4 14 18 11 9 8 4 359 357 357 356 352 352 352 349 347 347 345 346 345 344 342 340 340 338 336 336 338 338 336 336
56 50 48 46 42 39 35 24 21 13 9 7 10 6 7 1 356 355 354 353 345 342 345 347 350 352 351 349 348 346 342 339 340 338 338 337 336 335 334 333 333 332 330
13 21 36 42 35 21 15 26 22 22 12 8 8 8 15 6 352 348 347 350 351 345 338 343 344 345 349 346 343 341 337 336 335 335 335 334 333 332 329 328 329 329 329
348 355 10 17 360 357 353 1 10 13 7 8 10 18 13 353 347 342 339 340 344 349 354 355 354 350 346 342 340 335 333 333 336 336 337 338 338 334 333 332 332 332 331
360 359 359 15 3 350 346 343 339 338 339 344 353 347 351 342 341 341 344 342 342 347 350 352 350 348 345 341 340 337 336 333 331 334 336 338 337 337 335 334 333 332 333
2 63 43 24 16 7 358 347 345 345 341 345 353 350 344 337 335 335 339 339 334 336 340 348 348 348 347 349 344 341 337 334 335 336 337 337 338 337 336 334 334 336 341
332 349 17 22 13 360 354 352 342 343 338 337 339 343 344 342 343 348 347 338 332 330 335 339 339 340 345 348 346 344 345 349 347 340 339 337 338 341 341 337 343 349 348
349 346 350 356 351 352 353 351 349 347 345 344 341 339 338 335 330 333 338 342 347 335 332 333 335 340 338 351 349 352 353 351 346 346 346 346 345 344 344 348 351 351 350
348 355 354 355 350 348 346 345 345 340 336 335 334 334 334 335 335 335 336 336 335 337 329 329 329 340 342 342 348 350 354 353 350 349 350 350 349 348 348 349 349 349 348